Regional Weather Roundup
Issued by NWS

Home | Current Version | Previous Version | Text Only | Print | Product List | Glossary Off
Versions: 1 2 3 4 5 6 7 8 9 10 11 12 13 14 15 16 17 18 19 20 21 22 23 24 25 26

000
ASUS45 KSLC 180110
RWRUT

UTAH REGIONAL WEATHER ROUNDUP
NATIONAL WEATHER SERVICE SALT LAKE CITY UT
600 PM MST SAT FEB 17 2018

UTZ001>011-023>025-180200-

NORTHERN UTAH

CITY           SKY/WX    TMP DP  RH WIND       PRES   REMARKS
BRIGHAM CITY   PTCLDY    51  17  26 SW5       29.89F
HILL AFB       NOT AVBL
LOGAN          CLOUDY    53  17  24 S10       29.88F
OGDEN          PTCLDY    50  18  28 S10       29.89F
SALT LAKE CITY MOCLDY    58  14  17 S15       29.90F
TOOELE VALLEY  PTCLDY    52  19  28 SW7       29.89F
WENDOVER       PTCLDY    49  18  29 N8        29.87F
HEBER CITY       N/A     48   5  17 SE3       29.95F
WEST JORDAN    PTCLDY    50  20  31 S13       29.92F

$$

UTZ011>015-024>027-180200-

CENTRAL/NORTHEAST UTAH

CITY           SKY/WX    TMP DP  RH WIND       PRES   REMARKS
PROVO AIRPORT  PTCLDY    51  17  26 E5        29.96F
MOAB/CANYONLAN   N/A     49  27  42 NE3       30.04S
DELTA          CLEAR     52  18  25 S12       29.96F
PRICE          CLEAR     41  13  31 E9        30.05S
RICHFIELD      CLEAR     55   7  14 SW9G16    29.98S
ROOSEVELT      CLEAR     48   7  18 SW10      29.98S
VERNAL         CLEAR     41  10  28 CALM      29.96F

$$

UTZ013>016-019>022-027-180200-

SOUTHERN UTAH

CITY           SKY/WX    TMP DP  RH WIND       PRES   REMARKS
BRYCE CANYON   CLEAR     41  19  41 SE12      30.12F
CEDAR CITY     CLEAR     47  21  35 SW12      30.05F
MILFORD        CLEAR     53  19  26 S20       29.99S
ST GEORGE      PTCLDY    58  28  32 CALM      30.07F
HANKSVILLE     CLEAR     52  12  20 SE9       30.05S
KANAB          CLEAR     54  23  30 SW6       30.13F
BLANDING         N/A     45  14  28 S3        30.19F

$$

REGIONAL REPORTS     COLORADO/ARIZONA

CITY           SKY/WX    TMP DP  RH WIND       PRES   REMARKS
CRAIG, CO      PTCLDY    38  12  34 SW9       29.99F WCI  31
GRAND JUNCTION PTCLDY    42  23  46 NW7       30.06F
RIFLE, CO      PTCLDY    39  20  46 S9        30.05F WCI  33
MONTROSE, CO     N/A     47  13  25 N3        30.07F
CORTEZ, CO     PTCLDY    46  12  25 SW3       30.14S
COLORADO CITY    N/A     55  27  33 NW5       30.12F
PAGE, AZ         N/A     51  21  30 CALM      30.07F
GRAND CANYON   PTCLDY    48  20  32 CALM      30.16S
KINGMAN, AZ    PTCLDY    60  24  25 SW10      30.09F
FLAGSTAFF, AZ  MOCLDY    45  24  43 SW9       30.18S

$$

REGIONAL REPORTS    NEVADA/IDAHO/WYOMING

CITY           SKY/WX    TMP DP  RH WIND       PRES   REMARKS
LAS VEGAS, NV  PTCLDY    63  13  14 E6        30.05F
ELY, NY        CLEAR     50   9  19 S7        29.99F
ELKO, NV       PTCLDY    52  21  29 SW16G23   29.89F
POCATELLO, ID  CLOUDY    45  20  36 S23G31    29.79F
BURLEY, ID     CLOUDY    47  27  45 SW8       29.79F
EVANSTON, WY   MOCLDY    39  10  30 SW23      29.91F WCI  28
ROCK SPRINGS,  MOCLDY    43  -2  15 SW17      29.89F

$$




USA.gov is the U.S. government's official web portal to all federal, state and local government web resources and services.